This demonstration page uses our WeatherBlox Daily Observations layout. Learn more.

Left ArrowRight Arrow

38.20091, -84.87328

Hourly Observations for July 9, 2019

Temp ( °F °C ) Dew Point ( °F °C ) Humidity (%) Winds ( mph kmh ) Pressure ( in mb ) Visibility ( mi km ) Precip ( " mm )
12:53 am 00:53 Clear 73 22.8 69 20.6 87 87 Calm 29.96 1015 10 16 0.00 0.00
1:53 am 01:53 Clear 71 21.7 68 20 90 90 Calm 29.96 1015 10 16 0.00 0.00
2:53 am 02:53 Clear 71 21.7 67 19.4 87 87 Calm 29.96 1014 10 16 0.00 0.00
3:53 am 03:53 Clear 71 21.7 68 20 90 90 Calm 29.95 1014 10 16 0.00 0.00
4:53 am 04:53 Clear 70 21.1 67 19.4 90 90 Calm 29.96 1015 10 16 0.00 0.00
5:53 am 05:53 Clear 70 21.1 67 19.4 90 90 Calm 29.98 1015 10 16 0.00 0.00
6:53 am 06:53 Sunny 70 21.1 67 19.4 90 90 Calm 29.99 1016 10 16 0.00 0.00
7:53 am 07:53 Sunny 74 23.3 68 20 82 82 Calm 30.01 1016 10 16 0.00 0.00
8:53 am 08:53 Sunny 77 25 69 20.6 77 77 E 5 7 30.02 1017 10 16 0.00 0.00
9:53 am 09:53 Sunny 81 27.2 70 21.1 69 69 Calm 30.01 1016 10 16 0.00 0.00
10:53 am 10:53 Sunny 83 28.3 71 21.7 67 67 VRB 3 6 30.00 1016 10 16 0.00 0.00
11:53 am 11:53 Partly Cloudy 86 30 70 21.1 59 59 VRB 3 6 29.99 1016 10 16 0.00 0.00
12:53 pm 12:53 Mostly Cloudy 86 30 69 20.6 57 57 VRB 5 7 30.00 1016 10 16 0.00 0.00
1:53 pm 13:53 Partly Cloudy 88 31.1 68 20 52 52 E 7 11 29.98 1015 10 16 0.00 0.00
2:53 pm 14:53 Partly Cloudy 91 32.8 68 20 47 47 SE 9 15 29.96 1015 10 16 0.00 0.00
3:53 pm 15:53 Mostly Sunny 89 31.7 66 18.9 47 47 Calm 29.96 1015 10 16 0.00 0.00
4:53 pm 16:53 Partly Cloudy 89 31.7 65 18.3 45 45 ENE 5 7 29.95 1014 10 16 0.00 0.00
5:53 pm 17:53 Mostly Cloudy 91 32.8 67 19.4 45 45 ESE 3 6 29.94 1014 10 16 0.00 0.00
6:53 pm 18:53 Cloudy 91 32.8 66 18.9 44 44 VRB 3 6 29.94 1014 10 16 0.00 0.00
7:53 pm 19:53 Sunny 89 31.7 67 19.4 48 48 WNW 3 6 29.95 1014 10 16 0.00 0.00
8:53 pm 20:53 Partly Cloudy 85 29.4 71 21.7 63 63 Calm 29.96 1014 10 16 0.00 0.00
9:53 pm 21:53 Clear 79 26.1 70 21.1 74 74 Calm 29.96 1015 10 16 0.00 0.00
10:53 pm 22:53 Clear 76 24.4 70 21.1 82 82 Calm 29.98 1015 10 16 0.00 0.00
11:53 pm 23:53 Clear 76 24.4 70 21.1 82 82 Calm 29.97 1015 10 16 0.00 0.00

Powered by AerisWeather